Location: Feigenhofen
(48.4939°N, 10.7793°E)
Time: 16:19:10
(UTC+00:00)

Cosmos 1975 Rocket - Pass Details

Date: 26 May 2022
Orbit: 603 x 633 km, 82.5° (Epoch: 28 June)

Event Time Altitude Azimuth Distance (km) Brightness Sun altitude
Exits shadow 00:39:41 34° 176° (S) 1,036 3.7 -17.8°
Maximum altitude 00:41:34 75° 98° (E) 654 3.1 -17.7°
Drops below altitude 10° 00:46:03 10° 13° (NNE) 2,022 7.0 -17.4°
Sets 00:48:18 0° 12° (NNE) 2,938 8.1 -17.3°
